Location: Buckenweiler
(49.0667°N, 10.2500°E)
Time: 08:34:36
(UTC+00:00)

Cosmos 1656 Rocket - Pass Details

Date: 18 January 2026
Orbit: 794 x 843 km, 71.1° (Epoch: 16 February)

Event Time Altitude Azimuth Distance (km) Brightness Sun altitude
Rises 05:58:32 0° 210° (SSW) 3,389 6.7 -10.8°
Reaches altitude 10° 06:00:58 10° 211° (SSW) 2,458 6.0 -10.4°
Maximum altitude 06:06:38 79° 298° (WNW) 861 3.7 -9.5°
Drops below altitude 10° 06:12:18 10° 27° (NNE) 2,459 6.2 -8.7°
Sets 06:14:45 0° 28° (NNE) 3,391 6.9 -8.3°
